Home > Time Zones > World Clock > Weather > India > Theni > Past weeks

Flag for India Weather past 2 weeks in Theni, Tamil Nadu, India

Now
86 °F

Passing clouds.


Feels Like: 88 °F
Forecast: 74 / 95 °F
Wind: 12 mph from West

Location: Coimbatore / Peelamedu

Current Time: Jul 24, 2014 at 2:55:08 PM

Latest Report: Jul 24, 2014 at 2:30 PM


Visibility: 4 mi

Pressure: 29.80 "Hg

Humidity: 52%

Dew point: 66 °F

Location of TheniLocation

Historic Weather in Theni — Graph

°F

Theni temperature yesterday

Maximum temperature yesterday: 79 °F (at 11:30 AM)
Minimum temperature yesterday: 73 °F (at 4:30 AM)
Average temperature yesterday: 75 °F

Past Weeks' High & Low Weather Summary

 TemperatureHumidityPressure
High88 °F (Jul 9, 1:30 PM)94% (Jul 10, 4:00 AM)29.89 "Hg (Jul 10, 4:00 AM)
Low72 °F (Jul 24, 2:30 AM)46% (Jul 11, 2:30 PM)29.74 "Hg (Jul 9, 2:30 PM)
Average79 °F72%29.82 "Hg
* Reported Jul 9 1:30 PM — Jul 24 2:00 PM, Theni, Weather by CustomWeather, © 2014

Note: Actual official high and low records may vary slightly from our data, if they occured in-between our weather recording intervals... More about our weather records

Advertising

Theni weather history for previous 24 hours

 ConditionsComfort  
Time TempWeatherWind HumidityBarometerVisibility
2:00 PM
Jul 24
88 °FScattered clouds.12 mph49%29.80 "Hg4 mi
1:30 PM86 °FScattered clouds.12 mph52%29.83 "Hg4 mi
1:00 PM84 °FScattered clouds.16 mph55%29.83 "Hg4 mi
12:30 PM86 °FScattered clouds.18 mph55%29.83 "Hg4 mi
12:00 PM86 °FScattered clouds.9 mph59%29.86 "Hg4 mi
11:30 AM84 °FScattered clouds.17 mph62%29.86 "Hg4 mi
9:30 AM79 °FScattered clouds.12 mph79%29.89 "Hg3 mi
9:00 AM79 °FScattered clouds.12 mph79%29.89 "Hg3 mi
6:30 AM72 °FPassing clouds.9 mph94%29.86 "Hg3 mi
6:00 AM72 °FPassing clouds.10 mph94%29.83 "Hg2 mi
5:30 AM72 °FPartly cloudy.10 mph94%29.83 "Hg2 mi
4:30 AM72 °FDrizzle. Mostly cloudy.12 mph94%29.83 "Hg2 mi
4:00 AM73 °FDrizzle. Mostly cloudy.12 mph89%29.80 "Hg2 mi
3:30 AM73 °FDrizzle. Mostly cloudy.5 mph89%29.83 "Hg2 mi
3:00 AM72 °FDrizzle. Mostly cloudy.5 mph94%29.83 "Hg2 mi
2:30 AM72 °FMostly cloudy.6 mph94%29.86 "Hg2 mi
11:30 PM
Jul 23
73 °FPartly cloudy.14 mph89%29.89 "Hg3 mi
11:00 PM73 °FPartly cloudy.15 mph89%29.89 "Hg3 mi
10:30 PM73 °FPartly cloudy.15 mph89%29.89 "Hg3 mi
10:00 PM73 °FPartly cloudy.10 mph89%29.89 "Hg3 mi
9:30 PM73 °FPartly cloudy.14 mph89%29.89 "Hg3 mi
9:00 PM73 °FPartly cloudy.13 mph89%29.89 "Hg3 mi
8:30 PM75 °FPartly cloudy.6 mph78%29.89 "Hg3 mi
8:00 PM73 °FPartly cloudy.9 mph89%29.86 "Hg3 mi
7:30 PM73 °FPartly cloudy.12 mph89%29.86 "Hg3 mi
6:00 PM75 °FDrizzle. Broken clouds.12 mph78%29.80 "Hg3 mi
5:30 PM75 °FDrizzle. Broken clouds.14 mph78%29.80 "Hg3 mi
5:00 PM77 °FDrizzle. Broken clouds.13 mph79%29.80 "Hg3 mi
4:30 PM77 °FLight rain. Broken clouds.14 mph79%29.80 "Hg3 mi
3:30 PM79 °FDrizzle. Broken clouds.9 mph74%29.80 "Hg3 mi
3:00 PM79 °FDrizzle. Broken clouds.12 mph74%29.80 "Hg3 mi
2:30 PM77 °FDrizzle. Broken clouds.12 mph83%29.83 "Hg3 mi
2:00 PM77 °FDrizzle. Broken clouds.12 mph83%29.83 "Hg3 mi
Weather by CustomWeather, © 2014

See weather overviewHow to use our weather pages